Burlington, CO

9:59 PM MST on February 26, 2017 (GMT -0700)
Kit Carson County

Weather History for KITR - June, 2013

Change the Weather History Date:

Tuesday, June 11, 2013

  Actual Average Record
Temperature  
Mean Temperature 87 °F 67 °F  
Max Temperature 107 °F 82 °F 107 °F (2013)
Min Temperature 66 °F 53 °F 39 °F (1940)
Cooling Degree Days 22    
Growing Degree Days 37 (Base 50)    
Moisture  
Dew Point 37 °F    
Average Humidity 23    
Maximum Humidity 70    
Minimum Humidity 6    
Precipitation  
Precipitation 0.00 in 0.10 in 2.08 in (1951)
Month to date precipitation 0.40 1.07  
Year to date precipitation 6.00 6.80  
Sea Level Pressure  
Sea Level Pressure 29.59 in    
Wind  
Wind Speed 13 mph (WSW)    
Max Wind Speed 24 mph    
Max Gust Speed 37 mph    
Visibility 10 miles    
Events      
T = Trace of Precipitation, MM = Missing Value Source: NWS Daily Summary

Daily Weather History Graph

Daily Weather History Graph

Search for Another Location

Airport or City:

Trip Planner

Search our weather history database for the weather conditions in past years. The results will help you decide how hot, cold, wet, or windy it might be!

Date:

Astronomy

Jun. 11, 2013 Rise Set
Actual Time 5:22 AM MDT 8:15 PM MDT
Civil Twilight 4:50 AM MDT 8:47 PM MDT
Nautical Twilight 4:09 AM MDT 9:28 PM MDT
Astronomical Twilight 3:22 AM MDT 10:15 PM MDT
Moon 8:06 AM MDT (6/11) 10:20 PM MDT (6/11)
Length of Visible Light 15h 57m
Length of Day
14h 53m
Waxing Crescent, 8% of the Moon is Illuminated
Jun 11
Waxing Crescent
Jun 16
First Quarter
Jun 23
Full
Jun 29
Last Quarter
Jul 8
New

Hourly Weather History & Observations

Time (MDT) Temp. Dew Point Humidity Pressure Visibility Wind Dir Wind Speed Gust Speed Precip Events Conditions
12:53 AM 68.0 °F 43.0 °F 40% 29.63 in 10.0 mi SW 6.9 mph - N/A   Clear
1:53 AM 69.1 °F 42.1 °F 38% 29.62 in 10.0 mi SSW 9.2 mph - N/A   Clear
2:53 AM 75.0 °F 37.9 °F 26% 29.60 in 10.0 mi SSW 20.7 mph - N/A   Clear
3:53 AM 69.1 °F 39.9 °F 35% 29.60 in 10.0 mi South 12.7 mph - N/A   Clear
4:53 AM 68.0 °F 41.0 °F 37% 29.61 in 10.0 mi WSW 11.5 mph - N/A   Clear
5:53 AM 69.1 °F 41.0 °F 36% 29.61 in 10.0 mi WSW 12.7 mph - N/A   Clear
6:53 AM 73.9 °F 42.1 °F 32% 29.62 in 10.0 mi West 13.8 mph - N/A   Clear
7:53 AM 82.0 °F 43.0 °F 25% 29.64 in 10.0 mi West 12.7 mph - N/A   Clear
8:53 AM 91.0 °F 39.9 °F 17% 29.64 in 10.0 mi WNW 16.1 mph - N/A   Clear
9:53 AM 96.1 °F 39.0 °F 14% 29.63 in 10.0 mi WNW 13.8 mph 21.9 mph N/A   Clear
10:53 AM 98.1 °F 37.9 °F 12% 29.64 in 10.0 mi West 10.4 mph - N/A   Clear
11:53 AM 100.9 °F 37.0 °F 11% 29.63 in 10.0 mi West 10.4 mph - N/A   Clear
12:53 PM 102.9 °F 35.1 °F 10% 29.61 in 10.0 mi SSW 8.1 mph - N/A   Clear
1:53 PM 102.0 °F 28.0 °F 7% 29.59 in 10.0 mi SW 19.6 mph 29.9 mph N/A   Clear
2:53 PM 106.0 °F 27.0 °F 6% 29.55 in 10.0 mi SW 24.2 mph 35.7 mph N/A   Clear
3:53 PM 105.1 °F 25.0 °F 6% 29.54 in 10.0 mi SW 21.9 mph 33.4 mph N/A   Clear
4:53 PM 105.1 °F 27.0 °F 6% 29.51 in 10.0 mi SSW 19.6 mph 36.8 mph N/A   Clear
5:53 PM 100.9 °F 21.9 °F 6% 29.49 in 10.0 mi SW 19.6 mph 31.1 mph N/A   Clear
6:53 PM 100.0 °F 23.0 °F 6% 29.48 in 10.0 mi WSW 19.6 mph - N/A   Clear
7:53 PM 87.1 °F 27.0 °F 11% 29.50 in 10.0 mi SW 11.5 mph - N/A   Clear
8:53 PM 81.0 °F 24.1 °F 12% 29.52 in 10.0 mi WSW 13.8 mph - N/A   Clear
9:53 PM 81.0 °F 51.1 °F 35% 29.58 in 10.0 mi NNW 15.0 mph - N/A   Clear
10:53 PM 77.0 °F 60.1 °F 56% 29.64 in 10.0 mi North 12.7 mph 19.6 mph N/A   Clear
11:53 PM 68.0 °F 57.9 °F 70% 29.67 in 10.0 mi NNW 8.1 mph - N/A   Clear